Weather History for Jamestown, ND

Change the Weather History Date:

Monday, March 25, 2013

  Actual Average Record
Temperature  
Mean Temperature 12 °F 32 °F  
Max Temperature 21 °F 42 °F 76 °F (1907)
Min Temperature 2 °F 22 °F -13 °F (1964)
Degree Days  
Heating Degree Days 53 33  
Month to date heating degree days 1294 973  
Since 1 July heating degree days 8041 7732  
Cooling Degree Days 0 0  
Month to date cooling degree days 0 0  
Year to date cooling degree days 0 0  
Moisture  
Dew Point 9 °F    
Average Humidity 79    
Maximum Humidity 91    
Minimum Humidity 67    
Precipitation  
Precipitation T in 0.03 in 0.26 in (1950)
Month to date precipitation 0.28 0.65  
Year to date precipitation 0.77 1.50  
Sea Level Pressure  
Sea Level Pressure 30.39 in    
Wind  
Wind Speed 12 mph (NNW)    
Max Wind Speed 18 mph    
Max Gust Speed 21 mph    
Visibility 10 miles    
Events Snow    
T = Trace of Precipitation, MM = Missing Value Source: NWS Daily Summary

Daily Weather History Graph

Daily Weather History Graph

Search for Another Location

Airport:

Trip Planner

Search our weather history database for the weather conditions in past years. The results will help you decide how hot, cold, wet, or windy it might be!

Date:

Astronomy

Mar. 25, 2013 Rise Set
Actual Time 7:27 AM CDT 7:54 PM CDT
Civil Twilight 6:56 AM CDT 8:25 PM CDT
Nautical Twilight 6:20 AM CDT 9:01 PM CDT
Astronomical Twilight 5:43 AM CDT 9:38 PM CDT
Moon 6:24 PM CDT (3/25) 6:16 AM CDT (3/25)
Length of Visible Light 13h 28m
Length of Day
12h 27m
Waxing Gibbous, 96% of the Moon is Illuminated
Mar 25
Waxing Gibbous
Mar 27
Full
Apr 2
Last Quarter
Apr 10
New
Apr 18
First Quarter

Hourly Weather History & Observations

Time (CDT) Temp. Windchill Dew Point Humidity Pressure Visibility Wind Dir Wind Speed Gust Speed Precip Events Conditions
12:56 AM 15.1 °F 1.1 °F 10.0 °F 80% 30.33 in 10.0 mi NNW 12.7 mph - N/A   Clear
1:56 AM 14.0 °F -1.4 °F 9.0 °F 80% 30.34 in 10.0 mi NNW 15.0 mph - N/A   Scattered Clouds
2:56 AM 15.1 °F -0.1 °F 10.0 °F 80% 30.34 in 10.0 mi NNW 15.0 mph - N/A   Overcast
3:56 AM 15.1 °F -0.1 °F 10.9 °F 84% 30.34 in 10.0 mi NNW 15.0 mph - N/A   Overcast
4:56 AM 14.0 °F -1.4 °F 10.0 °F 84% 30.34 in 10.0 mi NNW 15.0 mph - N/A   Overcast
5:56 AM 15.1 °F -0.6 °F 10.9 °F 84% 30.35 in 6.0 mi NW 16.1 mph - 0.00 in Snow Light Snow
6:56 AM 16.0 °F 0.6 °F 10.9 °F 81% 30.36 in 5.0 mi NNW 16.1 mph - 0.00 in Snow Light Snow
7:56 AM 14.0 °F -0.8 °F 10.0 °F 84% 30.38 in 9.0 mi NNW 13.8 mph - 0.00 in   Overcast
8:56 AM 15.1 °F 0.5 °F 10.0 °F 80% 30.40 in 9.0 mi NNW 13.8 mph - 0.00 in Snow Light Snow
9:56 AM 16.0 °F 1.1 °F 10.9 °F 81% 30.40 in 10.0 mi NNW 15.0 mph - 0.00 in   Overcast
10:56 AM 17.1 °F 2.5 °F 10.9 °F 77% 30.41 in 10.0 mi NNW 15.0 mph - 0.00 in   Overcast
11:56 AM 18.0 °F 3.6 °F 12.0 °F 78% 30.42 in 10.0 mi NNW 15.0 mph - 0.00 in   Overcast
12:56 PM 19.9 °F 5.7 °F 12.9 °F 74% 30.41 in 10.0 mi NNW 16.1 mph - 0.00 in   Partly Cloudy
1:56 PM 19.9 °F 5.7 °F 12.0 °F 71% 30.41 in 10.0 mi NNW 16.1 mph - N/A   Clear
2:56 PM 19.9 °F 7.3 °F 10.9 °F 68% 30.40 in 10.0 mi NNW 12.7 mph - N/A   Clear
3:56 PM 19.9 °F 6.7 °F 12.9 °F 74% 30.40 in 10.0 mi NNW 13.8 mph - N/A   Partly Cloudy
4:56 PM 19.0 °F 6.1 °F 12.0 °F 74% 30.40 in 10.0 mi NNW 12.7 mph - N/A   Clear
5:56 PM 19.0 °F 6.1 °F 10.9 °F 71% 30.40 in 10.0 mi NNW 12.7 mph - N/A   Clear
6:56 PM 17.1 °F 5.0 °F 10.0 °F 74% 30.41 in 10.0 mi NNW 10.4 mph - N/A   Clear
7:56 PM 12.9 °F 1.6 °F 7.0 °F 77% 30.42 in 10.0 mi NW 8.1 mph - N/A   Clear
8:56 PM 10.9 °F 0.2 °F 6.1 °F 81% 30.42 in 10.0 mi NW 6.9 mph - N/A   Clear
9:56 PM 8.1 °F -3.2 °F 3.9 °F 83% 30.43 in 10.0 mi NW 6.9 mph - N/A   Clear
10:56 PM 3.9 °F -6.9 °F 1.0 °F 88% 30.42 in 10.0 mi NW 5.8 mph - N/A   Clear
11:56 PM 3.9 °F -3.4 °F -0.0 °F 84% 30.43 in 10.0 mi West 3.5 mph - N/A   Clear